User: anonymous   Login
Location: Franzen
(48.6167°N, 15.3833°E)
Time: 22:26:53
(UTC+00:00)
Language:

Meteor 1-25 Rocket - Orbit

View from above orbital plane
View from above orbital plane
View from above satellite
View from above satellite

Ground track
Ground track

The orbit data is extracted from the following two-line orbital elements,

1  8846U 76043B   21172.54218188  .00000097  00000-0  49151-4 0  9996
2  8846  81.2196 325.8844 0036396 199.7983 160.1777 14.08585113317367
Epoch (UTC): 21 June 2021 13:00:44
Eccentricity: 0.0036396
inclination: 81.2196°
perigee height: 838 km
apogee height: 890 km
right ascension of ascending node: 325.8844°
argument of perigee: 199.7983°
revolutions per day: 14.08585113
mean anomaly at epoch: 160.1777°
orbit number at epoch: 31736

The dashed part of the orbit path shows where the satellite is in the earth's shadow,  

DLR